Notices

What's New in latest Release from April 7th, 2021:

- Updated Glossary, including Speed of Maximum Gust, and Total Hourly Precipitation

- Updated national and regional climate services offices contacts and prices information

- Addition of station inventory lists for 1981-2010, 1971-2000, and 1961-1990 Normals.

If you haven't already, please take our survey and provide feedback about our website: https://eccc.sondage-survey.ca/f/LanguageSelection.aspx?s=442ca660-fcf1-47c0-95a9-59707d6fd709

Hourly Data Report for December 19, 2020

MUSKOKA
ONTARIO
Current Station Operator: NAVCAN

44°58'29.000" N
79°18'12.000" W
281.90 m
6115529
71532
YQA

Download Data

Hourly Data (December 2020)
Hourly Data Report for December 19, 2020
TIME
LST
Temp Definition
°C
Dew Point Definition
°C
Rel Hum Definition
%
Precip. Amount Definition
mm

Wind Dir Definition
10's deg

Wind Spd Definition
km/h
Visibility Definition
km
Stn Press Definition
kPa
Hmdx Definition


Wind Chill Definition


Weather Definition


00:00 -8.2 -12.2 73 0.0 14 5 16.1 99.18   -11 LegendNANA
01:00 -8.8 -11.8 79 0.0 16 9 16.1 99.12   -13 LegendNANA
02:00 -7.6 -10.0 83 0.0 16 8 16.1 99.08   -12 LegendNANA
03:00 -6.5 -8.5 86 0.0 16 9 16.1 99.08   -11 LegendNANA
04:00 -6.3 -8.2 86 0.0 16 9 16.1 99.01   -11 LegendNANA
05:00 -5.4 -7.1 88 0.0 13 8 16.1 98.98   -9 LegendNANA
06:00 -5.1 -6.6 89 0.0 13 8 16.1 98.94   -9 LegendNANA
07:00 -4.1 -5.7 89 0.0 15 13 16.1 98.91   -9 LegendNANA
08:00 -3.4 -4.8 90 0.0 15 13 16.1 98.90   -8 LegendNANA
09:00 -3.0 -4.4 90 0.0 14 13 16.1 98.88   -8 LegendNANA
10:00 -2.3 -4.0 88 0.0 15 15 16.1 98.83   -7 LegendNANA
11:00 -1.4 -3.6 85 0.0 16 17 16.1 98.77   -7 LegendNANA
12:00 0.2 -3.2 78 0.0 17 21 16.1 98.68     LegendNANA
13:00 0.6 -3.2 76 0.0 17 22 16.1 98.58     LegendNANA
14:00 -0.4 -1.8 90 0.0 16 21 2.0 98.50   -6 Snow
15:00 -0.3 -1.3 93 199.4 16 21 2.0 98.47   -6 Snow
16:00 -0.6 -1.5 94 LegendMM 14 21 1.6 98.43   -6 Snow
17:00 -0.7 -1.4 95 LegendMM 14 18 1.6 98.40   -6 Snow
18:00 -0.7 -1.4 95 LegendMM 17 13 2.0 98.44   -5 Snow
19:00 -0.9 -1.6 95 LegendMM 15 13 2.0 98.41   -5 Snow
20:00 -1.0 -1.6 96 LegendMM 14 11 2.0 98.36   -5 Snow
21:00 -0.9 -1.6 95 LegendMM 14 13 2.8 98.31   -5 Snow
22:00 -0.9 -1.6 95 LegendMM 13 13 4.8 98.26   -5 Snow
23:00 -0.8 -1.4 96 LegendMM 14 13 2.8 98.19   -5 Snow

Notes on Data Quality.

Legend

  • E = Estimated
  • M = Missing
  • NA = Not Available*
  • [empty] = Indicates an unobserved value
Date modified: